Weather History for KJYM - January, 2013

Change the Weather History Date:

Thursday, January 24, 2013

  Actual Average (KJXN) Record (KJXN)
Temperature  
Mean Temperature 10 °F 23 °F  
Max Temperature 17 °F 31 °F 60 °F (1967)
Min Temperature 3 °F 16 °F -17 °F (1963)
Degree Days  
Heating Degree Days 55 42  
Month to date heating degree days 997  
Since 1 July heating degree days 3545  
Cooling Degree Days 0 0  
Month to date cooling degree days 0  
Year to date cooling degree days 0  
Moisture  
Dew Point 0 °F    
Average Humidity 64    
Maximum Humidity 84    
Minimum Humidity 37    
Precipitation  
Precipitation 0.00 in 0.04 in 0.60 in (1950)
Month to date precipitation 1.22  
Year to date precipitation 1.22  
Sea Level Pressure  
Sea Level Pressure 30.40 in    
Wind  
Wind Speed 7 mph (NNW)    
Max Wind Speed 15 mph    
Max Gust Speed 22 mph    
Visibility 10 miles    
Events      
T = Trace of Precipitation, MM = Missing Value Source: NWS Daily Summary

Daily Weather History Graph

Daily Weather History Graph

Search for Another Location

Airport or City:

Trip Planner

Search our weather history database for the weather conditions in past years. The results will help you decide how hot, cold, wet, or windy it might be!

Date:

Astronomy

Jan. 24, 2013 Rise Set
Actual Time 7:57 AM EST 5:43 PM EST
Civil Twilight 7:27 AM EST 6:13 PM EST
Nautical Twilight 6:53 AM EST 6:47 PM EST
Astronomical Twilight 6:20 AM EST 7:20 PM EST
Moon 3:44 PM EST (1/24) 5:55 AM EST (1/24)
Length of Visible Light 10h 45m
Length of Day
9h 45m
Waxing Gibbous, 94% of the Moon is Illuminated
Jan 24
Waxing Gibbous
Jan 26
Full
Feb 3
Last Quarter
Feb 10
New
Feb 17
First Quarter

Hourly Weather History & Observations

Time (EST) Temp. Windchill Dew Point Humidity Pressure Visibility Wind Dir Wind Speed Gust Speed Precip Events Conditions
12:15 AM 12.7 °F -1.1 °F 7.7 °F 80% 30.08 in 10.0 mi NNW 11.5 mph 21.9 mph N/A   Scattered Clouds
12:34 AM 12.2 °F -3.1 °F 7.7 °F 82% 30.09 in 10.0 mi NNW 13.8 mph 19.6 mph N/A   Clear
12:55 AM 11.3 °F -3.6 °F 6.6 °F 81% 30.10 in 10.0 mi NW 12.7 mph 17.3 mph N/A   Clear
1:14 AM 10.9 °F -3.4 °F 6.4 °F 82% 30.11 in 10.0 mi NW 11.5 mph 16.1 mph N/A   Clear
1:35 AM 10.6 °F -4.5 °F 5.5 °F 80% 30.12 in 10.0 mi NW 12.7 mph 17.3 mph N/A   Clear
1:55 AM 10.0 °F -3.7 °F 4.8 °F 79% 30.15 in 10.0 mi NW 10.4 mph 17.3 mph N/A   Clear
2:15 AM 9.9 °F -6.7 °F 5.0 °F 81% 30.16 in 10.0 mi NNW 15.0 mph - N/A   Clear
2:34 AM 9.3 °F -5.4 °F 4.6 °F 81% 30.18 in 10.0 mi NNW 11.5 mph - N/A   Clear
2:54 AM 9.0 °F -5.9 °F 4.5 °F 82% 30.19 in 10.0 mi NNW 11.5 mph - N/A   Clear
3:14 AM 9.0 °F -5.1 °F 4.1 °F 81% 30.21 in 10.0 mi NNW 10.4 mph - N/A   Clear
3:34 AM 8.1 °F -5.3 °F 3.4 °F 81% 30.23 in 10.0 mi NNW 9.2 mph - N/A   Clear
3:55 AM 7.5 °F -5.0 °F 2.8 °F 81% 30.24 in 10.0 mi NNW 8.1 mph - N/A   Clear
4:14 AM 7.7 °F -5.8 °F 2.8 °F 81% 30.25 in 10.0 mi NNW 9.2 mph - N/A   Clear
4:35 AM 6.4 °F -3.9 °F 1.9 °F 82% 30.27 in 10.0 mi NNW 5.8 mph - N/A   Clear
4:55 AM 6.1 °F -7.8 °F 1.9 °F 83% 30.28 in 10.0 mi NNW 9.2 mph - N/A   Clear
5:14 AM 5.7 °F -8.2 °F 1.8 °F 84% 30.30 in 10.0 mi NNW 9.2 mph - N/A   Clear
5:35 AM 6.1 °F -5.6 °F 2.1 °F 84% 30.31 in 10.0 mi NNW 6.9 mph - N/A   Clear
5:55 AM 5.4 °F -7.6 °F 1.4 °F 84% 30.32 in 10.0 mi NNW 8.1 mph - N/A   Clear
6:14 AM 5.0 °F -5.6 °F 1.0 °F 84% 30.34 in 10.0 mi NNW 5.8 mph - N/A   Clear
6:34 AM 3.9 °F -8.2 °F 0.1 °F 84% 30.35 in 10.0 mi North 6.9 mph - N/A   Clear
6:54 AM 4.6 °F -7.4 °F 0.7 °F 84% 30.37 in 10.0 mi North 6.9 mph - N/A   Clear
7:15 AM 4.3 °F -6.5 °F 0.1 °F 83% 30.38 in 10.0 mi North 5.8 mph - N/A   Clear
7:34 AM 3.6 °F -3.8 °F -0.2 °F 84% 30.40 in 10.0 mi NNW 3.5 mph - N/A   Clear
7:55 AM 3.0 °F -6.4 °F -0.8 °F 84% 30.41 in 10.0 mi NNW 4.6 mph - N/A   Clear
8:14 AM 3.0 °F -8.0 °F -0.8 °F 84% 30.42 in 10.0 mi NNW 5.8 mph - N/A   Clear
8:34 AM 4.1 °F -8.0 °F 0.3 °F 84% 30.43 in 10.0 mi North 6.9 mph - N/A   Clear
8:55 AM 5.7 °F -7.2 °F 1.4 °F 82% 30.44 in 10.0 mi North 8.1 mph - N/A   Clear
9:15 AM 7.0 °F -5.7 °F 1.9 °F 80% 30.45 in 10.0 mi North 8.1 mph - N/A   Clear
9:35 AM 8.2 °F -5.1 °F 2.1 °F 76% 30.47 in 10.0 mi North 9.2 mph - N/A   Clear
9:54 AM 9.3 °F -2.8 °F 2.1 °F 73% 30.48 in 10.0 mi North 8.1 mph - N/A   Clear
10:15 AM 10.2 °F -2.7 °F 2.1 °F 70% 30.50 in 10.0 mi North 9.2 mph - N/A   Clear
10:35 AM 10.9 °F -0.8 °F 1.8 °F 67% 30.51 in 10.0 mi North 8.1 mph - N/A   Clear
10:54 AM 11.8 °F 0.3 °F 1.4 °F 63% 30.52 in 10.0 mi NNE 8.1 mph - N/A   Clear
11:14 AM 12.7 °F 3.6 °F 0.5 °F 58% 30.53 in 10.0 mi North 5.8 mph - N/A   Clear
11:35 AM 13.6 °F 3.5 °F 0.3 °F 55% 30.53 in 10.0 mi North 6.9 mph - N/A   Clear
11:54 AM 14.4 °F 4.3 °F -0.0 °F 53% 30.53 in 10.0 mi North 6.9 mph - N/A   Clear
12:14 PM 15.1 °F 7.7 °F -2.6 °F 46% 30.52 in 10.0 mi North 4.6 mph - N/A   Clear
12:35 PM 15.1 °F - -3.1 °F 45% 30.53 in 10.0 mi Calm Calm - N/A   Clear
12:54 PM 15.6 °F - -0.8 °F 49% 30.52 in 10.0 mi Calm Calm - N/A   Clear
1:15 PM 15.4 °F - -1.8 °F 47% 30.51 in 10.0 mi Calm Calm - N/A   Clear
1:35 PM 16.0 °F - -3.1 °F 43% 30.50 in 10.0 mi Calm Calm - N/A   Unknown
1:54 PM 16.5 °F - -3.6 °F 41% 30.50 in 10.0 mi Calm Calm - N/A   Unknown
2:15 PM 16.5 °F - -4.0 °F 40% 30.50 in 10.0 mi Calm Calm - N/A   Unknown
2:35 PM 17.2 °F - -3.1 °F 41% 30.50 in 10.0 mi Calm Calm - N/A   Unknown
2:54 PM 17.2 °F - -4.4 °F 38% 30.50 in 10.0 mi Calm Calm - N/A   Unknown
3:15 PM 17.1 °F - -5.1 °F 37% 30.50 in 10.0 mi Calm Calm - N/A   Clear
3:34 PM 17.1 °F 8.7 °F -5.1 °F 37% 30.50 in 10.0 mi NW 5.8 mph - N/A   Clear
3:54 PM 16.5 °F 9.4 °F -5.1 °F 38% 30.50 in 10.0 mi NNW 4.6 mph - N/A   Clear
4:15 PM 15.3 °F 6.6 °F -4.4 °F 42% 30.50 in 10.0 mi NNW 5.8 mph - N/A   Clear
4:34 PM 15.3 °F 6.6 °F -4.7 °F 41% 30.50 in 10.0 mi NNW 5.8 mph - N/A   Clear
4:54 PM 15.1 °F 6.4 °F -4.7 °F 41% 30.50 in 10.0 mi NNW 5.8 mph - N/A   Clear
5:15 PM 14.4 °F 8.6 °F -4.5 °F 43% 30.50 in 10.0 mi NNW 3.5 mph - N/A   Clear
5:35 PM 14.2 °F - -4.4 °F 44% 30.50 in 10.0 mi Calm Calm - N/A   Clear
5:54 PM 14.4 °F 8.6 °F -4.7 °F 43% 30.50 in 10.0 mi North 3.5 mph - N/A   Clear
6:15 PM 13.5 °F - -4.2 °F 45% 30.50 in 10.0 mi Calm Calm - N/A   Clear
6:34 PM 12.6 °F - -3.8 °F 48% 30.50 in 10.0 mi Calm Calm - N/A   Clear
6:55 PM 11.7 °F - -3.1 °F 52% 30.50 in 10.0 mi Calm Calm - N/A   Clear
7:14 PM 11.1 °F - -4.2 °F 50% 30.49 in 10.0 mi Calm Calm - N/A   Clear
7:35 PM 11.5 °F - -4.5 °F 49% 30.49 in 10.0 mi Calm Calm - N/A   Clear
7:55 PM 10.8 °F - -2.9 °F 54% 30.48 in 10.0 mi Calm Calm - N/A   Clear
8:14 PM 9.9 °F - -0.0 °F 64% 30.46 in 10.0 mi Calm Calm - N/A   Clear
8:35 PM 9.9 °F - 0.3 °F 65% 30.46 in 10.0 mi Calm Calm - N/A   Clear
8:54 PM 10.8 °F - 0.9 °F 64% 30.46 in 10.0 mi Calm Calm - N/A   Clear
9:15 PM 11.7 °F - 2.5 °F 67% 30.45 in 10.0 mi Calm Calm - N/A   Clear
9:35 PM 12.0 °F - 3.6 °F 69% 30.44 in 10.0 mi Calm Calm - N/A   Clear
9:53 PM 12.6 °F - 3.6 °F 67% 30.44 in 10.0 mi Calm Calm - N/A   Clear
10:14 PM 13.6 °F - -0.8 °F 53% 30.45 in 10.0 mi Calm Calm - N/A   Clear
10:35 PM 13.6 °F - 1.4 °F 58% 30.43 in 10.0 mi Calm Calm - N/A   Scattered Clouds
10:54 PM 13.6 °F - 0.7 °F 56% 30.44 in 10.0 mi Calm Calm - N/A   Scattered Clouds
11:15 PM 13.8 °F - 0.9 °F 56% 30.43 in 10.0 mi Calm Calm - N/A   Scattered Clouds
11:35 PM 13.8 °F 8.0 °F -0.0 °F 54% 30.42 in 10.0 mi SE 3.5 mph - N/A   Mostly Cloudy
11:54 PM 14.4 °F 8.6 °F 0.1 °F 53% 30.41 in 10.0 mi ESE 3.5 mph - N/A   Overcast